This demonstration page uses our WeatherBlox Daily Observations layout. Learn more.

Left ArrowRight Arrow

Hourly Observations for July 1, 2022

Temp ( °F °C ) Dew Point ( °F °C ) Humidity (%) Winds ( mph kmh ) Pressure ( in mb ) Visibility ( mi km ) Precip ( " mm )
12:56 am 00:56 Clear 73 22.8 62 16.7 69 69 NNE 8 13 29.97 1015 10 16 0.00 0.00
1:56 am 01:56 Mostly Cloudy 73 22.8 61 16.1 66 66 NNE 12 19 29.97 1015 10 16 0.00 0.00
2:19 am 02:19 Mostly Cloudy with Nearby Thunderstorms 73 23 61 16 65 65 ENE 9 15 29.95 1014 10 16 0.00 0.00
2:53 am 02:53 Cloudy with Light Rain 70 21 61 16 73 73 NE 17 28 29.98 1015 10 16 0.00 0.00
2:56 am 02:56 Cloudy with Light Rain 70 21.1 61 16.1 73 73 NE 16 26 29.99 1016 10 16 0.00 0.00
3:03 am 03:03 Cloudy with Light Rain 72 22 61 16 69 69 E 18 30 29.96 1015 10 16 0.00 0.00
3:16 am 03:16 Cloudy 72 22 61 16 69 69 ESE 20 31 29.94 1014 10 16 0.00 0.00
3:56 am 03:56 Mostly Cloudy 69 20.6 62 16.7 78 78 NE 7 11 29.96 1015 10 16 0.00 0.00
4:56 am 04:56 Clear 68 20 62 16.7 81 81 Calm 29.97 1015 10 16 0.00 0.00
5:56 am 05:56 Mostly Cloudy 67 19.4 63 17.2 87 87 WNW 14 22 30.03 1017 10 16 0.00 0.00
6:56 am 06:56 Cloudy 66 18.9 59 15 78 78 N 16 26 30.05 1018 10 16 0.00 0.00
7:56 am 07:56 Cloudy 66 18.9 59 15 78 78 NE 20 31 30.04 1017 10 16 0.00 0.00
8:56 am 08:56 Mostly Cloudy 66 18.9 61 16.1 84 84 ENE 15 24 30.05 1018 10 16 0.00 0.00
9:56 am 09:56 Mostly Sunny 68 20 61 16.1 78 78 E 12 19 30.06 1018 10 16 0.00 0.00
10:56 am 10:56 Cloudy 69 20.6 61 16.1 76 76 ENE 8 13 30.08 1019 10 16 0.00 0.00
11:56 am 11:56 Cloudy with Light Rain 67 19.4 62 16.7 84 84 E 10 17 30.07 1018 10 16 0.00 0.00
12:56 pm 12:56 Cloudy with Light Rain 68 20 63 17.2 84 84 NNE 5 7 30.07 1018 10 16 0.00 0.00
1:56 pm 13:56 Mostly Cloudy 70 21.1 63 17.2 79 79 NE 6 9 30.05 1018 10 16 0.00 0.00
2:56 pm 14:56 Sunny 75 23.9 63 17.2 66 66 ENE 9 15 30.04 1017 10 16 0.00 0.00
3:56 pm 15:56 Sunny 79 26.1 63 17.2 58 58 E 15 24 30.03 1017 10 16 0.00 0.00
4:56 pm 16:56 Sunny 81 27.2 63 17.2 54 54 ESE 12 19 30.01 1016 10 16 0.00 0.00
5:56 pm 17:56 Sunny 80 26.7 64 17.8 58 58 ENE 14 22 29.99 1016 10 16 0.00 0.00
6:56 pm 18:56 Sunny 80 26.7 64 17.8 58 58 E 15 24 29.97 1015 10 16 0.00 0.00
7:56 pm 19:56 Sunny 78 25.6 62 16.7 58 58 E 14 22 29.97 1015 10 16 0.00 0.00
8:56 pm 20:56 Sunny 73 22.8 64 17.8 74 74 ESE 8 13 29.99 1016 10 16 0.00 0.00
9:56 pm 21:56 Clear 68 20 63 17.2 84 84 E 6 9 30.01 1016 10 16 0.00 0.00
10:56 pm 22:56 Clear 67 19.4 62 16.7 84 84 ESE 8 13 30.02 1017 10 16 0.00 0.00
11:56 pm 23:56 Clear 65 18.3 61 16.1 87 87 ESE 7 11 30.03 1017 10 16 0.00 0.00

Powered by AerisWeather